Regional Weather Roundup
Issued by NWS State College, PA

Home | Current Version | Previous Version | Graphics & Text | Print | Product List | Glossary Off
Versions: 1 2 3 4 5 6 7 8 9 10 11 12 13 14 15 16 17 18 19 20 21 22 23 24 25 26 27 28 29 30 31 32 33 34 35 36 37 38 39 40 41 42 43 44 45 46 47 48 49 50

000
ASUS41 KCTP 290810
RWRCTP

REGIONAL WEATHER ROUNDUP
NATIONAL WEATHER SERVICE STATE COLLEGE PA
400 AM EDT FRI APR 29 2016

Note: "fair" indicates few or no clouds below 12,000 feet with no
significant weather and/or obstructions to visibility.

* = STATION THAT DOES NOT REPORT PRECIPITATION /E.G. RAIN...SNOW...ETC/
    THUNDER OR FOG.

PAZ002>004-007>009-013>016-020>023-029>032-290900-
WESTERN PENNSYLVANIA

CITY           SKY/WX    TMP DP  RH WIND       PRES   REMARKS
ERIE           CLOUDY    46  42  86 NE8       29.98R
MEADVILLE      CLOUDY    41  41 100 NE3       29.96R FOG
FRANKLIN*      CLOUDY    43  39  87 NE5       29.97R
NEW CASTLE     CLOUDY    44  44 100 N5        29.96S FOG
BEAVER COUNTY  NOT AVBL
BUTLER*        CLOUDY    45  43  93 CALM      29.97R
PITTSBURGH INT FOG       46  44  93 NW5       29.94R VSB 1/2
PITTSBURGH     FOG       46  44  93 N5        29.92R VSB 1/4
INDIANA*       CLOUDY    45  45 100 E6        29.96S
LATROBE        CLOUDY    48  48 100 CALM      29.93R FOG
WASHINGTON CO* CLOUDY    46  45  93 N3        29.94R
$$

PAZ004>006-010>012-017>019-024>028-033>037-041-042-045-046-049>053-290900-
CENTRAL PENNSYLVANIA

CITY           SKY/WX    TMP DP  RH WIND       PRES   REMARKS
BRADFORD       CLOUDY    41  39  93 E6        29.96R
DUBOIS         CLOUDY    41  39  93 E9        29.94S FOG
CLEARFIELD     LGT RAIN  42  40  92 NE7       29.97R FOG
JOHNSTOWN      CLOUDY    43  40  89 S3        29.92S FOG
ALTOONA        CLOUDY    42  40  92 E5        29.97S FOG
STATE COLLEGE  LGT RAIN  42  42  97 NE3       29.99R
WILLIAMSPORT   CLOUDY    46  43  89 CALM      30.01R
SELINSGROVE    CLOUDY    46  44  93 CALM      30.02R FOG
FT INDIANTOWN  CLOUDY    43  43 100 NE3       30.02S FOG
CAPITAL CITY   CLOUDY    46  42  86 E7        30.02S FOG
HARRISBURG     DRIZZLE   45  43  93 NE5       30.01S FOG
YORK           CLOUDY    44  42  93 E6        30.02R FOG
$$

PAZ038>040-043-044-047-048-054-055-060>062-067>071-290900-
EASTERN PENNSYLVANIA

CITY           SKY/WX    TMP DP  RH WIND       PRES   REMARKS
SCRANTON       CLOUDY    45  42  89 CALM      30.01R
MOUNT POCONO   CLOUDY    42  38  85 E6        29.99S
ALLENTOWN      CLOUDY    46  40  79 CALM      30.03S
QUAKERTOWN*    CLOUDY    45  41  87 CALM      30.04R
READING        CLOUDY    44  41  89 NE3       30.02S
LANCASTER      CLOUDY    43  42  97 E7        30.02S FOG
COATESVILLE    CLOUDY    43  43 100 E6        30.03S FOG
POTTSTOWN      CLOUDY    43  42  97 NE3       30.05R FOG
BLUE BELL      CLOUDY    41  41 100 CALM      30.03S
DOYLESTOWN     CLOUDY    42  42 100 CALM      30.03S
WILLOW GROVE   NOT AVBL
NORTH PHILA    CLOUDY    46  42  86 NE7       30.06S
PHILADELPHIA   CLOUDY    46  40  79 NE8       30.05R
$$




USA.gov is the U.S. government's official web portal to all federal, state and local government web resources and services.